GLOBALSTAR M095 (39077 NORAD) Tracking and Keplerian Element Data

This shows tracking and keplerian element data for the satellite.

Feedback or suggestion? Click here.




ElementValue
Catalog39077
NameGLOBALSTAR M095
Epoch Orbit55286
Epoch Day34.28962101
Epoch Year2025
RAAN0.1597
Inclination51.9824
Eccentricity3.28E-05
Argument of Perigee313.2709
Mean Anonmoly46.813
Mean Motion12.62265861
Decay Rate-9E-07
L11 39077U 13005F 25034.28962101 -.00000090 00000+0 74319-4 0 9995
L22 39077 51.9824 0.1597 0000328 313.2709 46.8130 12.62265861552864



Live tracking and technical data element details for GLOBALSTAR M095 (NORAD 39077). GLOBALSTAR M095 can be tracked NOW for your location showing map with azimuth and elevation plus other details from your city location.







IsCatalogInMostPopularTable: catalog: 39077, numindb: 547
Update: records affected: 1



GetName: 39077 GLOBALSTAR M095

Hit Count: updated at: Thu, 15 May 2025 18:46:04 GMT